Regional Weather Roundup
Issued by NWS

Home | Current Version | Previous Version | Graphics & Text | Print | Product List | Glossary On
Versions: 1 2 3 4 5 6 7 8 9 10 11 12 13 14 15 16 17 18 19 20 21 22 23 24 25 26 27 28 29 30 31 32 33 34 35 36 37 38 39 40 41 42 43 44 45 46 47 48 49 50
000
ASUS43 KMPX 180401
RWRMN
WEATHER ROUNDUP FOR MINNESOTA
NATIONAL WEATHER SERVICE TWIN CITIES/CHANHASSEN MN
1100 PM CDT WED SEP 17 2014


NOTE: "FAIR" INDICATES FEW OR NO CLOUDS BELOW 12,000 FEET WITH NO
SIGNIFICANT WEATHER AND/OR OBSTRUCTIONS TO VISIBILITY. N/A MEANS
CURRENT SKY AND/OR WEATHER CONDITIONS ARE NOT AVAILABLE.

MNZ060>063-068>070-180500-
   Twin Cities Metro

CITY           SKY/WX    TMP DP  RH WIND       PRES   REMARKS
TWIN CITIES    CLEAR     62  53  72 E5        30.01R
ST PAUL        CLEAR     57  54  89 CALM      30.02R
CRYSTAL        CLEAR     59  53  80 NE8       30.01R
BLAINE         CLEAR     57  55  94 NE7       30.03R
LAKEVILLE      CLEAR     52  50  93 CALM      30.01S
EDEN PRAIRIE     N/A    N/A N/A N/A MISG      30.00R
SOUTH ST PAUL  CLEAR     57  54  89 CALM      30.01R
LAKE ELMO      FAIR      55  54  94 NE10      30.03R
$$
MNZ001>005-007-008-013>017-022>024-027-028-180500-
   Northwest Minnesota

CITY           SKY/WX    TMP DP  RH WIND       PRES   REMARKS
BEMIDJI        CLEAR     46  43  88 E9        30.06S
HALLOCK        CLEAR     45  39  81 E9        30.08R
ROSEAU         CLEAR     37  34  87 E7        30.09F
WARROAD        CLEAR     45  39  81 E12       30.10S
THIEF RVR FALL CLEAR     45  41  87 E8        30.06S
CROOKSTON      CLEAR     48  45  87 E7        30.06S
FOSSTON        CLEAR     46  43  87 E6        30.05S
DETROIT LAKES  CLEAR     55  50  82 CALM      30.04S
MOORHEAD       CLEAR     54  52  94 CALM      30.02S
PARK RAPIDS    CLEAR     54  48  80 NE7       30.04R
MAHNOMEN       FAIR      48  45  88 NE7       30.03S
$$
MNZ006-009>011-018-025>026-180500-
   North Central Minnesota

CITY           SKY/WX    TMP DP  RH WIND       PRES   REMARKS
BAUDETTE       CLEAR     38  35  89 E6        30.11R
FLAG ISLAND    MOCLDY    45  37  76 E6        30.10S
INTL FALLS     PTCLDY    31  30  96 CALM      30.11S
WASKISH        CLEAR     39  37  93 CALM      30.09S
BIG FORK       CLOUDY    45  43  93 CALM      30.10R
LONGVILLE      CLOUDY    48  46  93 E5        30.07R
GRAND RAPIDS   CLOUDY    45  39  81 SE9       30.10R
CRANE LAKE     CLEAR     36  34  93 CALM      30.14R
ORR            PTCLDY    39  37  93 CALM      30.09S
COOK           CLOUDY    43  41  93 SE5       30.11S
WALKER         FAIR      51  46  84 NE5       30.05S
$$
MNZ012-019>021-037-180500-
   Northeast Minnesota

CITY           SKY/WX    TMP DP  RH WIND       PRES   REMARKS
DULUTH         CLOUDY    45  39  79 E12       30.12R
ELY            MOCLDY    39  37  93 S3        30.13R
HIBBING        CLOUDY    45  39  79 SE9       30.12R
EVELETH        CLOUDY    43  37  81 SE5       30.13R
DULUTH HARBOR  MOCLDY    48  43  81 E16       30.14S
TWO HARBORS    CLOUDY    43  37  81 NE5       30.12S
SILVER BAY     MOCLDY    43  41  93 NE3       30.13S
GRAND MARAIS     N/A     44  38  79 N3        30.16S
G MARAIS ARPRT CLOUDY    37  34  87 NE3       30.14S
$$
MNZ029>031-032-039>041-046>048-054>057-064-180500-
   West Central Minnesota

CITY           SKY/WX    TMP DP  RH WIND       PRES   REMARKS
FERGUS FALLS   CLEAR     57  50  77 E7        30.01R
WHEATON        CLEAR     50  46  87 CALM      30.02R
MORRIS         CLEAR     55  52  88 E6        29.99S
ALEXANDRIA     CLEAR     54  52  93 E3        30.02S
ELBOW LAKE     FAIR      57  50  77 E3        30.00S
WADENA         CLEAR     54  48  82 NE3       30.03R
GLENWOOD       CLEAR     55  52  88 E5        30.02S
APPLETON       CLEAR     57  52  82 E5        29.99S
BENSON         PTCLDY    55  54  94 E3        30.00R
ORTONVILLE     CLEAR     57  52  82 NE3       29.99S
MADISON        CLEAR     57  54  88 CALM      29.99S
WILLMAR        FAIR      57  54  88 E5        30.02R
$$
MNZ033>034-036-042>043-049>051-058-059-180500-
   Central Minnesota

CITY           SKY/WX    TMP DP  RH WIND       PRES   REMARKS
ST CLOUD       CLEAR     54  48  80 E10G22    30.03R
SAUK CENTRE    FAIR      51  51  99 CALM      30.02R FOG
PAYNESVILLE    CLEAR     49  49  99 CALM      30.02R
AITKIN         CLOUDY    48  43  81 E7        30.08R
PINE RIVER     CLOUDY    48  46  93 E12       30.10R
BRAINERD       CLOUDY    47  45  93 E9        30.07R
STAPLES        CLEAR     54  52  94 E6        30.03S
LONG PRAIRIE   FAIR      50  50 100 CALM      30.03R
LITTLE FALLS   CLEAR     52  46  82 E3        30.04R
LITCHFIELD     CLEAR     57  57 100 CALM      30.01S
BUFFALO        CLEAR     55  53  92 NE7       30.03R
MAPLE LAKE     CLEAR     56  55  99 NE7       30.03R
$$
MNZ037-044-045-052-053-180500-
   East Central Minnesota

CITY           SKY/WX    TMP DP  RH WIND       PRES   REMARKS
PRINCETON      CLEAR     52  48  87 NE9       30.05R
MORA           CLOUDY    46  43  87 NE8       30.09R
CAMBRIDGE      CLOUDY    54  45  71 NE8       30.04R
RUSH CITY      CLOUDY    48  46  90 NE7       30.07R
MOOSE LAKE     CLOUDY    45  41  87 NE7       30.09R
HINCKLEY       CLOUDY    48  45  87 NE7       30.09R
CLOQUET        MOCLDY    45  39  81 E10G17    30.11S
MCGREGOR       CLOUDY    45  43  93 E12       30.10R
$$
MNZ071>073-080-081-089-090-097-098-180500-
   Southwest Minnesota

CITY           SKY/WX    TMP DP  RH WIND       PRES   REMARKS
MONTEVIDEO     CLEAR     57  54  88 CALM      30.01R
GRANITE FALLS  CLEAR     56  53  88 NE3       30.01S
CANBY          PTCLDY    54  53  95 SW3       30.01R
MARSHALL       PTCLDY    55  50  82 CALM      29.99R
REDWOOD FALLS  PTCLDY    61  54  77 E5        29.99R
OLIVIA         CLEAR     59  52  77 CALM      30.00R
PIPESTONE      CLEAR     57  52  82 CALM      30.00S
WINDOM         FAIR      61  54  77 E5        30.00S
WORTHINGTON    CLEAR     57  54  88 CALM      30.01R
JACKSON        CLEAR     54  50  87 CALM      30.01R
TRACY          PTCLDY    61  54  76 CALM      30.00R
SLAYTON        PTCLDY    56  52  88 CALM      30.01S
$$
MNZ065>067-074>077-082>085-091>093-180500-
   South Central Minnesota

CITY           SKY/WX    TMP DP  RH WIND       PRES   REMARKS
MANKATO        CLEAR     57  48  72 SE3       30.01R
NEW ULM        CLEAR     63  54  72 E3        30.00R
ST JAMES       PTCLDY    57  54  88 NE3       30.01R
FAIRMONT       PTCLDY    57  50  77 CALM      30.00S
GLENCOE        CLEAR     56  51  85 CALM      30.00S
FARIBAULT      CLEAR     54  48  82 CALM      30.02R
OWATONNA       CLEAR     55  52  88 E3        30.02R
WASECA         CLEAR     50  46  87 CALM      30.03R
ALBERT LEA     CLEAR     54  54 100 CALM      30.02R
$$
MNZ078>079-086>088-094>096-180500-
   Southeast Minnesota

CITY           SKY/WX    TMP DP  RH WIND       PRES   REMARKS
ROCHESTER      CLEAR     55  51  86 S6        30.03R
RED WING       CLEAR     54  52  94 CALM      30.01R
STANTON        CLEAR     53  50  92 CALM      30.00R
DODGE CENTER   CLEAR     55  52  88 CALM      30.02S
WINONA         CLEAR     55  55 100 CALM      30.02S
AUSTIN         CLEAR     54  50  87 CALM      30.02R
PRESTON        CLEAR     57  54  91 S3        30.04R
$$
ABBREVIATIONS USED IN REMARKS
   TC - TEMPERATURES IN CELSIUS
  WCI - WIND CHILL INDEX
   HX - HEAT INDEX
  VSB - VISIBILITY
$$


USA.gov is the U.S. government's official web portal to all federal, state and local government web resources and services.